When you browse on this site, cookies collect data to enhance your experience and personalize the content and advertising you see.
Visit our Privacy Policy to learn more. By continuing to use the site, you agree to this use of cookies and data.

Hourly Weather Worcester

Today, 4 August, Tuesday

Time Temperature Precipitation Wind Pressure Humidity
00:00 +11°C° 0 mm 1 mps 759 mmHg 83%
01:00 +11°C° 0 mm 1 mps 758 mmHg 84%
02:00 +11°C° 0 mm 1 mps 758 mmHg 85%
03:00 +10°C° 0 mm 1 mps 758 mmHg 86%
04:00 +11°C° 0 mm 1 mps 758 mmHg 84%
05:00 +11°C° 0 mm 1 mps 758 mmHg 83%
06:00 +12°C° 0 mm 1 mps 758 mmHg 81%
07:00 +12°C° 0 mm 2 mps 758 mmHg 81%
08:00 +13°C° 0 mm 2 mps 758 mmHg 80%
09:00 +13°C° 0 mm 2 mps 758 mmHg 79%
10:00 +14°C° 0 mm 4 mps 757 mmHg 75%
11:00 +16°C° 0 mm 5 mps 757 mmHg 70%
12:00 +19°C° 0 mm 6 mps 756 mmHg 69%
13:00 +19°C° 0 mm 6 mps 756 mmHg 68%
14:00 +18°C° 0 mm 7 mps 755 mmHg 66%
15:00 +20°C° 0 mm 8 mps 755 mmHg 65%
16:00 +18°C° 0 mm 8 mps 755 mmHg 69%
17:00 +18°C° 0 mm 8 mps 754 mmHg 73%
18:00 +18°C° 0 mm 8 mps 754 mmHg 77%
19:00 +17°C° 0 mm 7 mps 754 mmHg 79%
20:00 +17°C° 0 mm 6 mps 754 mmHg 81%
21:00 +16°C° 0 mm 6 mps 754 mmHg 83%
22:00 +16°C° 0 mm 6 mps 754 mmHg 83%
23:00 +16°C° 0 mm 6 mps 754 mmHg 84%

Tomorrow, 5 August, Wednesday

Time Temperature Precipitation Wind Pressure Humidity
00:00 +16°C° 0 mm 6 mps 753 mmHg 85%
01:00 +17°C° 0 mm 6 mps 753 mmHg 84%
02:00 +17°C° 0 mm 6 mps 753 mmHg 84%
03:00 +17°C° 0 mm 6 mps 753 mmHg 83%
04:00 +17°C° 0 mm 6 mps 753 mmHg 83%
05:00 +17°C° 0 mm 6 mps 753 mmHg 84%
06:00 +17°C° 0 mm 6 mps 753 mmHg 84%
07:00 +19°C° 0 mm 6 mps 753 mmHg 80%
08:00 +20°C° 0 mm 7 mps 753 mmHg 76%
09:00 +21°C° 0 mm 7 mps 754 mmHg 72%
10:00 +21°C° 0 mm 7 mps 753 mmHg 71%
11:00 +22°C° 0 mm 7 mps 753 mmHg 70%
12:00 +22°C° 0 mm 7 mps 753 mmHg 69%
13:00 +22°C° 0 mm 7 mps 753 mmHg 67%
14:00 +23°C° 0 mm 7 mps 753 mmHg 66%
15:00 +23°C° 0 mm 8 mps 753 mmHg 65%
16:00 +22°C° 0.1 mm 7 mps 753 mmHg 71%
17:00 +21°C° 0.1 mm 7 mps 753 mmHg 78%
18:00 +20°C° 0.1 mm 6 mps 753 mmHg 84%
19:00 +19°C° 0 mm 6 mps 753 mmHg 87%
20:00 +19°C° 0 mm 5 mps 754 mmHg 89%
21:00 +18°C° 0 mm 4 mps 754 mmHg 91%
22:00 +18°C° 0 mm 4 mps 754 mmHg 92%
23:00 +18°C° 0 mm 4 mps 755 mmHg 94%

Day after tomorrow, 6 August, Thursday

Time Temperature Precipitation Wind Pressure Humidity
00:00 +18°C° 0 mm 3 mps 755 mmHg 95%
01:00 +17°C° 0 mm 3 mps 755 mmHg 96%
02:00 +17°C° 0 mm 3 mps 755 mmHg 96%
03:00 +17°C° 0 mm 3 mps 756 mmHg 97%
04:00 +17°C° 0 mm 3 mps 756 mmHg 96%
05:00 +18°C° 0 mm 3 mps 756 mmHg 96%
06:00 +18°C° 0 mm 3 mps 756 mmHg 96%
07:00 +19°C° 0 mm 3 mps 756 mmHg 91%
08:00 +20°C° 0 mm 3 mps 757 mmHg 86%
09:00 +21°C° 0 mm 4 mps 757 mmHg 81%
10:00 +22°C° 0.1 mm 4 mps 757 mmHg 81%
11:00 +22°C° 0.1 mm 4 mps 757 mmHg 80%
12:00 +22°C° 0.1 mm 5 mps 757 mmHg 80%
13:00 +23°C° 0.1 mm 5 mps 757 mmHg 76%
14:00 +25°C° 0.1 mm 5 mps 757 mmHg 72%
15:00 +26°C° 0.1 mm 5 mps 757 mmHg 68%
16:00 +26°C° 0.1 mm 5 mps 757 mmHg 70%
17:00 +25°C° 0.1 mm 4 mps 757 mmHg 72%
18:00 +25°C° 0.1 mm 4 mps 757 mmHg 74%
19:00 +22°C° 0 mm 3 mps 757 mmHg 79%
20:00 +21°C° 0 mm 3 mps 758 mmHg 85%
21:00 +19°C° 0 mm 2 mps 758 mmHg 91%
22:00 +19°C° 0 mm 2 mps 758 mmHg 92%
23:00 +18°C° 0 mm 2 mps 758 mmHg 93%

7 August, Friday

Time Temperature Precipitation Wind Pressure Humidity
00:00 +18°C° 0 mm 2 mps 759 mmHg 95%
01:00 +18°C° 0 mm 1 mps 759 mmHg 95%
02:00 +18°C° 0 mm 1 mps 759 mmHg 95%
03:00 +18°C° 0 mm 1 mps 759 mmHg 95%
04:00 +18°C° 0 mm 1 mps 759 mmHg 94%
05:00 +19°C° 0 mm 1 mps 759 mmHg 93%
06:00 +19°C° 0 mm 1 mps 759 mmHg 92%
07:00 +21°C° 0 mm 1 mps 759 mmHg 85%
08:00 +23°C° 0 mm 1 mps 759 mmHg 77%
09:00 +25°C° 0 mm 2 mps 759 mmHg 70%
10:00 +26°C° 0 mm 2 mps 759 mmHg 64%
11:00 +28°C° 0 mm 2 mps 759 mmHg 58%
12:00 +29°C° 0 mm 3 mps 759 mmHg 51%
13:00 +30°C° 0 mm 3 mps 758 mmHg 49%
14:00 +31°C° 0 mm 3 mps 758 mmHg 47%
15:00 +31°C° 0 mm 3 mps 758 mmHg 44%
16:00 +31°C° 0 mm 3 mps 758 mmHg 48%
17:00 +30°C° 0 mm 3 mps 757 mmHg 52%
18:00 +29°C° 0 mm 3 mps 757 mmHg 56%
19:00 +28°C° 0 mm 3 mps 758 mmHg 58%
20:00 +26°C° 0 mm 3 mps 758 mmHg 60%
21:00 +25°C° 0 mm 2 mps 758 mmHg 63%
22:00 +24°C° 0 mm 2 mps 758 mmHg 68%
23:00 +23°C° 0 mm 2 mps 758 mmHg 73%

8 August, Saturday

Time Temperature Precipitation Wind Pressure Humidity
00:00 +22°C° 0 mm 1 mps 758 mmHg 78%
01:00 +20°C° 0 mm 2 mps 759 mmHg 81%
02:00 +20°C° 0 mm 2 mps 759 mmHg 85%
03:00 +19°C° 0 mm 2 mps 759 mmHg 88%
04:00 +19°C° 0 mm 3 mps 759 mmHg 88%
05:00 +18°C° 0 mm 3 mps 759 mmHg 88%
06:00 +18°C° 0 mm 4 mps 760 mmHg 88%
07:00 +19°C° 0 mm 4 mps 760 mmHg 82%
08:00 +19°C° 0 mm 5 mps 760 mmHg 76%
09:00 +20°C° 0 mm 5 mps 761 mmHg 70%
10:00 +20°C° 0 mm 5 mps 761 mmHg 67%
11:00 +21°C° 0 mm 6 mps 761 mmHg 64%
12:00 +21°C° 0 mm 6 mps 762 mmHg 61%
13:00 +22°C° 0 mm 6 mps 762 mmHg 60%
14:00 +22°C° 0 mm 6 mps 762 mmHg 59%
15:00 +22°C° 0 mm 6 mps 762 mmHg 58%
16:00 +21°C° 0 mm 6 mps 762 mmHg 60%
17:00 +20°C° 0 mm 6 mps 762 mmHg 61%
18:00 +19°C° 0 mm 6 mps 763 mmHg 63%
19:00 +17°C° 0 mm 5 mps 763 mmHg 67%
20:00 +15°C° 0 mm 5 mps 763 mmHg 71%
21:00 +14°C° 0 mm 4 mps 764 mmHg 75%
22:00 +13°C° 0 mm 4 mps 764 mmHg 79%
23:00 +13°C° 0 mm 3 mps 764 mmHg 82%

9 August, Sunday

Time Temperature Precipitation Wind Pressure Humidity
00:00 +12°C° 0 mm 3 mps 764 mmHg 86%
01:00 +12°C° 0 mm 3 mps 764 mmHg 88%
02:00 +12°C° 0 mm 3 mps 764 mmHg 89%
03:00 +12°C° 0 mm 3 mps 764 mmHg 91%
04:00 +12°C° 0 mm 3 mps 764 mmHg 91%
05:00 +12°C° 0 mm 3 mps 764 mmHg 90%
06:00 +13°C° 0 mm 3 mps 764 mmHg 89%
07:00 +14°C° 0 mm 4 mps 764 mmHg 82%
08:00 +16°C° 0 mm 5 mps 764 mmHg 74%
09:00 +17°C° 0 mm 5 mps 764 mmHg 66%
10:00 +19°C° 0 mm 5 mps 763 mmHg 61%
11:00 +21°C° 0 mm 6 mps 763 mmHg 56%
12:00 +22°C° 0 mm 6 mps 763 mmHg 52%
13:00 +22°C° 0 mm 6 mps 763 mmHg 52%
14:00 +22°C° 0 mm 6 mps 762 mmHg 51%
15:00 +22°C° 0 mm 6 mps 762 mmHg 51%
16:00 +21°C° 0 mm 6 mps 762 mmHg 54%
17:00 +20°C° 0 mm 5 mps 762 mmHg 58%
18:00 +19°C° 0 mm 5 mps 762 mmHg 61%
19:00 +17°C° 0 mm 5 mps 762 mmHg 65%
20:00 +15°C° 0 mm 4 mps 762 mmHg 68%
21:00 +14°C° 0 mm 4 mps 762 mmHg 72%
22:00 +13°C° 0 mm 4 mps 762 mmHg 75%
23:00 +13°C° 0 mm 4 mps 762 mmHg 79%
Show more